Location: Haliburton Scout Reserve
(45.0900°N, 78.3200°W)
Time: 01:24:53
(UTC-05:00)

YUBILEINY - Pass Details

Date: 01 December 2023
Orbit: 1479 x 1508 km, 82.5° (Epoch: 01 March)

Event Time Altitude Azimuth Distance (km) Brightness Sun altitude
Rises 21:39:53 0° 347° (NNW) 4,632 ? -52.8°
Reaches altitude 10° 21:42:50 10° 344° (NNW) 3,644 ? -53.3°
Enters shadow 21:44:36 18° 340° (NNW) 3,075 ? -53.5°
